Weather History for Shawano, WI

Change the Weather History Date:

Saturday, December 8, 2012

  Actual Average (KGRB) Record (KGRB)
Temperature  
Mean Temperature 32 °F 24 °F  
Max Temperature 37 °F 31 °F 60 °F (1946)
Min Temperature 26 °F 17 °F -11 °F (1927)
Degree Days  
Heating Degree Days 34 41  
Month to date heating degree days 317  
Since 1 July heating degree days 2057  
Cooling Degree Days 0 0  
Month to date cooling degree days 0  
Year to date cooling degree days 398  
Moisture  
Dew Point 23 °F    
Average Humidity 71    
Maximum Humidity 86    
Minimum Humidity 48    
Precipitation  
Precipitation 0.00 in 0.06 in 0.52 in (1966)
Month to date precipitation 0.47  
Year to date precipitation 28.48  
Snow  
Snow 0.00 in 0.40 in 7.60 in (1977)
Month to date snowfall 3.1  
Since 1 July snowfall 7.3  
Snow Depth -    
Sea Level Pressure  
Sea Level Pressure 30.06 in    
Wind  
Wind Speed 6 mph (NE)    
Max Wind Speed 9 mph    
Max Gust Speed -    
Visibility 10 miles    
Events Snow    
T = Trace of Precipitation, MM = Missing Value Source: NWS Daily Summary

Daily Weather History Graph

Daily Weather History Graph

Search for Another Location

Airport:

Trip Planner

Search our weather history database for the weather conditions in past years. The results will help you decide how hot, cold, wet, or windy it might be!

Date:

Astronomy

Dec. 08, 2012 Rise Set
Actual Time 7:19 AM CST 4:13 PM CST
Civil Twilight 6:45 AM CST 4:46 PM CST
Nautical Twilight 6:09 AM CST 5:23 PM CST
Astronomical Twilight 5:33 AM CST 5:59 PM CST
Moon 1:32 AM CST (12/8) 12:53 PM CST (12/8)
Length of Visible Light 10h 00m
Length of Day
8h 53m
Waning Crescent, 28% of the Moon is Illuminated
Dec 8
Waning Crescent
Dec 13
New
Dec 19
First Quarter
Dec 28
Full
Jan 4
Last Quarter

Hourly Weather History & Observations

Time (CST) Temp. Windchill Dew Point Humidity Pressure Visibility Wind Dir Wind Speed Gust Speed Precip Events Conditions
12:15 AM 32.0 °F 25.6 °F 24.8 °F 75% 30.00 in 10.0 mi North 6.9 mph - N/A   Overcast
12:35 AM 32.0 °F 24.8 °F 24.8 °F 75% 29.99 in 10.0 mi North 8.1 mph - N/A   Overcast
12:55 AM 32.0 °F 25.6 °F 23.0 °F 69% 29.99 in 10.0 mi North 6.9 mph - N/A   Overcast
1:15 AM 32.0 °F 24.2 °F 24.8 °F 75% 29.98 in 10.0 mi NNE 9.2 mph - N/A   Mostly Cloudy
1:35 AM 32.0 °F 24.8 °F 24.8 °F 75% 29.98 in 10.0 mi NNE 8.1 mph - N/A   Overcast
1:55 AM 32.0 °F 24.8 °F 24.8 °F 75% 29.99 in 10.0 mi NNE 8.1 mph - N/A   Mostly Cloudy
2:15 AM 32.0 °F 24.8 °F 24.8 °F 75% 29.99 in 10.0 mi NNE 8.1 mph - N/A   Scattered Clouds
2:35 AM 32.0 °F 25.6 °F 23.0 °F 69% 29.99 in 10.0 mi NNE 6.9 mph - N/A   Clear
2:55 AM 30.2 °F 24.3 °F 23.0 °F 75% 29.99 in 10.0 mi NNE 5.8 mph - N/A   Clear
3:15 AM 30.2 °F 24.3 °F 23.0 °F 75% 29.99 in 10.0 mi North 5.8 mph - N/A   Scattered Clouds
3:35 AM 30.2 °F 24.3 °F 23.0 °F 75% 29.99 in 10.0 mi North 5.8 mph - N/A   Mostly Cloudy
3:55 AM 30.2 °F 24.3 °F 24.8 °F 80% 29.99 in 10.0 mi North 5.8 mph - N/A   Scattered Clouds
4:15 AM 30.2 °F 23.4 °F 24.8 °F 80% 29.99 in 10.0 mi North 6.9 mph - N/A   Mostly Cloudy
4:35 AM 30.2 °F 24.3 °F 24.8 °F 80% 29.99 in 10.0 mi North 5.8 mph - N/A   Mostly Cloudy
4:55 AM 30.2 °F 25.4 °F 24.8 °F 80% 30.00 in 10.0 mi North 4.6 mph - N/A   Scattered Clouds
5:15 AM 30.2 °F 23.4 °F 24.8 °F 80% 30.00 in 10.0 mi North 6.9 mph - N/A   Overcast
5:35 AM 30.2 °F 24.3 °F 26.6 °F 86% 30.01 in 10.0 mi North 5.8 mph - N/A   Scattered Clouds
5:55 AM 30.2 °F 24.3 °F 26.6 °F 86% 30.01 in 10.0 mi North 5.8 mph - N/A Snow Light Snow
6:15 AM 30.2 °F 21.9 °F 26.6 °F 86% 30.01 in 10.0 mi North 9.2 mph - N/A   Mostly Cloudy
6:35 AM 30.2 °F 22.6 °F 26.6 °F 86% 30.02 in 10.0 mi North 8.1 mph - N/A   Overcast
6:55 AM 30.2 °F 23.4 °F 26.6 °F 86% 30.02 in 10.0 mi North 6.9 mph - N/A   Overcast
7:15 AM 30.2 °F 24.3 °F 26.6 °F 86% 30.03 in 10.0 mi North 5.8 mph - N/A   Overcast
7:35 AM 30.2 °F 24.3 °F 24.8 °F 80% 30.03 in 10.0 mi North 5.8 mph - N/A   Overcast
7:55 AM 28.4 °F 22.2 °F 24.8 °F 86% 30.04 in 10.0 mi North 5.8 mph - N/A   Mostly Cloudy
8:15 AM 28.4 °F 22.2 °F 24.8 °F 86% 30.04 in 10.0 mi NNE 5.8 mph - N/A   Clear
8:35 AM 30.2 °F 26.7 °F 24.8 °F 80% 30.04 in 10.0 mi NNE 3.5 mph - N/A   Scattered Clouds
8:55 AM 30.2 °F 23.4 °F 24.8 °F 80% 30.05 in 10.0 mi North 6.9 mph - N/A   Mostly Cloudy
9:15 AM 30.2 °F 24.3 °F 24.8 °F 80% 30.06 in 10.0 mi NNE 5.8 mph - N/A   Mostly Cloudy
9:55 AM 32.0 °F 28.7 °F 23.0 °F 69% 30.07 in 10.0 mi NNE 3.5 mph - N/A   Clear
10:15 AM 32.0 °F 28.7 °F 23.0 °F 69% 30.07 in 10.0 mi NE 3.5 mph - N/A   Clear
10:55 AM 33.8 °F - 23.0 °F 65% 30.06 in 10.0 mi Calm Calm - N/A   Clear
11:15 AM 33.8 °F 30.8 °F 21.2 °F 60% 30.06 in 10.0 mi NE 3.5 mph - N/A   Clear
11:35 AM 35.6 °F 30.7 °F 21.2 °F 56% 30.05 in 10.0 mi NE 5.8 mph - N/A   Clear
11:55 AM 35.6 °F 32.8 °F 21.2 °F 56% 30.05 in 10.0 mi ENE 3.5 mph - N/A   Clear
12:15 PM 35.6 °F 32.8 °F 21.2 °F 56% 30.05 in 10.0 mi ENE 3.5 mph - N/A   Clear
12:35 PM 35.6 °F 32.8 °F 19.4 °F 52% 30.04 in 10.0 mi NE 3.5 mph - N/A   Clear
12:55 PM 37.4 °F 33.8 °F 19.4 °F 48% 30.05 in 10.0 mi East 4.6 mph - N/A   Clear
1:15 PM 37.4 °F - 19.4 °F 48% 30.04 in 10.0 mi Calm Calm - N/A   Clear
1:55 PM 37.4 °F 34.9 °F 19.4 °F 48% 30.03 in 10.0 mi ENE 3.5 mph - N/A   Clear
2:15 PM 37.4 °F 33.8 °F 19.4 °F 48% 30.03 in 10.0 mi ENE 4.6 mph - N/A   Clear
2:35 PM 37.4 °F 34.9 °F 19.4 °F 48% 30.04 in 10.0 mi ENE 3.5 mph - N/A   Clear
2:55 PM 35.6 °F 32.8 °F 17.6 °F 48% 30.06 in 10.0 mi ENE 3.5 mph - N/A   Clear
3:15 PM 37.4 °F 34.9 °F 19.4 °F 48% 30.06 in 10.0 mi East 3.5 mph - N/A   Clear
3:35 PM 35.6 °F 32.8 °F 19.4 °F 52% 30.07 in 10.0 mi East 3.5 mph - N/A   Clear
3:55 PM 33.8 °F - 19.4 °F 56% 30.09 in 10.0 mi Calm Calm - N/A   Clear
4:15 PM 32.0 °F - 19.4 °F 60% 30.09 in 10.0 mi Calm Calm - N/A   Clear
4:35 PM 32.0 °F 26.4 °F 19.4 °F 60% 30.09 in 10.0 mi East 5.8 mph - N/A   Clear
4:55 PM 32.0 °F - 19.4 °F 60% 30.10 in 10.0 mi Calm Calm - N/A   Clear
5:15 PM 32.0 °F - 19.4 °F 60% 30.11 in 10.0 mi Calm Calm - N/A   Clear
5:35 PM 30.2 °F 26.7 °F 19.4 °F 64% 30.12 in 10.0 mi ESE 3.5 mph - N/A   Clear
5:55 PM 30.2 °F 26.7 °F 19.4 °F 64% 30.13 in 10.0 mi SE 3.5 mph - N/A   Clear
6:15 PM 30.2 °F 25.4 °F 21.2 °F 69% 30.13 in 10.0 mi SE 4.6 mph - N/A   Clear
6:55 PM 28.4 °F 23.3 °F 21.2 °F 74% 30.12 in 10.0 mi SE 4.6 mph - N/A   Clear
7:15 PM 28.4 °F - 23.0 °F 80% 30.13 in 10.0 mi Calm Calm - N/A   Clear
7:35 PM 30.2 °F 26.7 °F 23.0 °F 75% 30.13 in 10.0 mi ENE 3.5 mph - N/A   Clear
7:55 PM 30.2 °F 25.4 °F 26.6 °F 86% 30.13 in 10.0 mi ENE 4.6 mph - N/A   Clear
8:15 PM 28.4 °F 22.2 °F 24.8 °F 86% 30.13 in 10.0 mi ENE 5.8 mph - N/A   Clear
8:35 PM 28.4 °F 23.3 °F 23.0 °F 80% 30.13 in 10.0 mi East 4.6 mph - N/A   Clear
8:55 PM 28.4 °F 22.2 °F 23.0 °F 80% 30.13 in 10.0 mi East 5.8 mph - N/A   Clear
9:15 PM 28.4 °F 22.2 °F 23.0 °F 80% 30.13 in 10.0 mi East 5.8 mph - N/A   Clear
9:35 PM 28.4 °F 23.3 °F 23.0 °F 80% 30.13 in 10.0 mi East 4.6 mph - N/A   Clear
9:55 PM 26.6 °F - 21.2 °F 80% 30.14 in 10.0 mi Calm Calm - N/A   Clear
10:15 PM 28.4 °F 23.3 °F 21.2 °F 74% 30.14 in 10.0 mi East 4.6 mph - N/A   Clear
10:35 PM 26.6 °F 22.6 °F 19.4 °F 74% 30.15 in 10.0 mi East 3.5 mph - N/A   Clear
11:15 PM 26.6 °F - 19.4 °F 74% 30.17 in 10.0 mi Calm Calm - N/A   Clear
11:35 PM 28.4 °F - 21.2 °F 74% 30.17 in 10.0 mi Calm Calm - N/A   Clear
11:55 PM 28.4 °F - 21.2 °F 74% 30.16 in 10.0 mi Calm Calm - N/A   Clear